Location: Jackson
(42.2460°N, 84.4010°W)
Time: 19:51:52
(UTC-04:00)

Courier 1B Rocket - Pass Details

Date: 14 February 2026
Orbit: 920 x 1201 km, 28.2° (Epoch: 13 March)

Event Time Altitude Azimuth Distance (km) Brightness Sun altitude
Rises 02:57:00 0° 251° (WSW) 3,888 - -50.1°
Reaches altitude 10° 03:03:34 10° 209° (SSW) 3,017 - -49.1°
Maximum altitude 03:04:03 10° 206° (SSW) 3,017 - -49.1°
Drops below altitude 10° 03:04:31 10° 202° (SSW) 3,028 - -49.0°
Sets 03:11:21 0° 160° (SSE) 4,051 - -48.0°
